Regional Weather Roundup
Issued by NWS

Home | Current Version | Previous Version | Graphics & Text | Print | Product List | Glossary On
Versions: 1 2 3 4 5 6 7 8 9 10 11 12 13 14 15 16 17 18 19 20 21 22 23 24 25 26 27 28 29 30 31 32 33 34 35 36 37 38 39 40 41 42 43 44 45 46 47 48 49 50
000
ASUS43 KLSX 250807
RWRMO

WEATHER SUMMARY FOR MISSOURI
NATIONAL WEATHER SERVICE SPRINGFIELD MO
200 AM CST SUN FEB 25 2018

NOTE: "FAIR" INDICATES FEW OR NO CLOUDS BELOW 12,000 FEET WITH NO
       SIGNIFICANT WEATHER AND/OR OBSTRUCTIONS TO VISIBILITY.
       CURRENT SKY AND/OR WEATHER CONDITIONS ARE NOT AVAILABLE FOR
       CHILLICOTHE AND FARMINGTON.

MOZ001>031-035>038-043-044-053-054-250900-
...NORTHERN AND WESTERN MISSOURI...

CITY           SKY/WX    TMP DP  RH WIND       PRES   REMARKS
KANSAS CTY INT CLEAR     31  24  75 W9        29.96R WCI  23
KANSAS C DTWN  CLEAR     33  27  78 W8        29.97R WCI  26
LEE`S SUMMIT   CLEAR     32  29  88 W10       29.97R WCI  24
ST JOSEPH      CLEAR     30  23  75 W9        29.96R WCI  22
CHILLICOTHE      N/A     33  26  75 VRB7      29.93R WCI  27
KIRKSVILLE     CLEAR     32  29  88 W14G21    29.86R WCI  22

$$
MOZ066>068-077>081-088>096-101>105-250900-
...SOUTHWEST MISSOURI...

CITY           SKY/WX    TMP DP  RH WIND       PRES   REMARKS
SPRINGFIELD    CLEAR     35  32  88 W8        29.99S WCI  29
JOPLIN         CLEAR     32  32 100 S5        30.01F WCI  27

$$
MOZ032>034-039>042-045>050-055>058-069>072-250900-
...CENTRAL MISSOURI...

CITY           SKY/WX    TMP DP  RH WIND       PRES   REMARKS
COLUMBIA       CLEAR     33  30  88 SW12      29.94R WCI  24
JEFFERSON CITY CLEAR     36  30  79 SW8       29.96R WCI  30
ROLLA          CLEAR     33  31  92 W12       29.96R WCI  24
SEDALIA        CLEAR     34  32  92 SW12      29.96R WCI  25
WHITEMAN AFB   CLEAR    N/A N/A N/A W10       29.94R
WARRENSBURG    CLEAR     32  30  93 SW12      29.97R WCI  23
OSAGE BEACH    CLEAR     34  31  88 SW9       29.99R WCI  27

$$
MOZ051-052-059>065-250900-
...EAST CENTRAL MISSOURI...

CITY           SKY/WX    TMP DP  RH WIND       PRES   REMARKS
ST LOUIS INTL  CLOUDY    39  34  82 W10       29.92R
SPIRIT OF STL  PTCLDY    39  32  76 W16G29    29.92R
ST CHARLES       N/A     38  30  73 W16       29.92R WCI  29

$$
MOZ072>076-082>087-097>100-106>115-250900-
...SOUTH CENTRAL AND SOUTHEAST MISSOURI...

CITY           SKY/WX    TMP DP  RH WIND       PRES   REMARKS
CAPE GIRARDEAU FAIR      47  37  68 W23G32    29.95R
FARMINGTON     CLOUDY    40  32  73 W16       29.97R
POPLAR BLUFF   FAIR      46  36  68 W8G22     29.98R
WEST PLAINS    CLEAR     36  31  82 NW7       30.00R

$$



USA.gov is the U.S. government's official web portal to all federal, state and local government web resources and services.